Погода в Озъяге

Россия / Республика Коми     61°49′11″N   53°26′37″E
темп.,
°C
ветер,
м/с
пор.,
м/с
влажн.,
%
обл.,
%
осадки,
мм/ч
давл.,
гПа
погр.,
м
13 мая, чт
чт1300:00+13з288068 0.0 1025138
03:00+12з26838 0.0 1025103
06:00+17з236515 0.0 1025208
09:00+23юз234570 0.0 1025783
12:00+26зюз34357 0.0 10241817
15:00+27юз35295 0.0 10222221
18:00+23зюз24410 0.0 1021110
21:00+18юз22565 0.0 102113
14 мая, пт
пт1400:00+17ююз2459100 0.0 102089
03:00+15ююз277485 0.2 1020132
06:00+19юз3115798 0.0 1019389
09:00+23юз374697 0.0 1018774
12:00+24ююз484545 0.0 10161550
15:00+24юз4946100 0.0 10151463
18:00+23з48540 0.0 10141352
21:00+16зюз297499 0.0 1016216
15 мая, сб
сб1500:00+15зюз2880100 0.0 1016169
03:00+14зюз2475100 0.0 101776
06:00+17зюз266122 0.0 1017311
09:00+22зюз48445 0.0 10171838
12:00+24з473387 0.0 10162275
15:00+25з4633100 0.0 10152269
18:00+23юз114483 0.0 101420
21:00+17ююв226198 0.1 101338
16 мая, вс
вс1600:00+16ююв31186100 3.7 1011330
03:00+16ююз4137864 3.7 1010475
06:00+18юз4127297 0.0 1010653
09:00+23юз6125036 0.0 10091531
12:00+26зюз7133311 0.0 10083084
15:00+26зюз6153517 0.0 10073096
18:00+21зюз513525 0.0 10081524
21:00+18зюз411630 0.0 1009851
17 мая, пн
пн1700:00+16зюз411730 0.0 1009896
03:00+14зюз411815 0.0 1009659
06:00+15з5107796 0.1 10101033
09:00+15зсз6106498 0.6 10121315
12:00+12сз5970100 0.0 10161027
15:00+15ссз475881 0.0 10171255
18:00+16с25556 0.0 1018879
21:00+11вюв117226 0.0 101910